Location: Bourg-d�Oueil
(42.8588°N, 0.4991°E)
Time: 16:25:10
(UTC+00:00)

Cosmos 1726 Rocket - Pass Details

Date: 16 June 2021
Orbit: 602 x 630 km, 82.5° (Epoch: 04 August)

Event Time Altitude Azimuth Distance (km) Brightness Sun altitude
Rises 23:28:47 0° 346° (NNW) 2,932 8.5 -23.4°
Reaches altitude 10° 23:31:05 10° 340° (NNW) 2,018 7.2 -23.5°
Maximum altitude 23:35:23 48° 267° (W) 829 4.1 -23.5°
Enters shadow 23:35:39 47° 255° (WSW) 836 4.1 -23.5°
